Regional Weather Roundup
Issued by NWS

Home | Current Version | Previous Version | Graphics & Text | Print | Product List | Glossary Off
Versions: 1 2 3 4 5 6 7 8 9 10 11 12 13 14 15 16 17 18 19 20 21 22 23 24 25 26 27 28 29 30 31 32 33 34 35 36 37 38 39 40 41 42 43 44 45 46 47 48 49 50

000
ASUS43 KMKX 291200
RWRWI

WISCONSIN REGIONAL WEATHER ROUNDUP
NATIONAL WEATHER SERVICE MILWAUKEE/SULLIVAN WI
600 AM CST MON DEC 29 2014

NOTE: "FAIR" INDICATES FEW OR NO CLOUDS BELOW 12,000 FEET WITH NO
SIGNIFICANT WEATHER AND/OR OBSTRUCTIONS TO VISIBILITY.

WIZ001-002-006>008-014>016-023>028-291300-
NORTHWEST WISCONSIN

CITY           SKY/WX    TMP DP  RH WIND       PRES   REMARKS
SUPERIOR ARPT  CLEAR     -2  -9  72 N7        30.50R WCI -15
ASHLAND        CLOUDY     2  -2  83 NW3       30.45R
6HR MIN TEMP:  -5; 6HR MAX TEMP:   2;

HAYWARD        PTCLDY   -10 -15  78 CALM      30.41R
6HR MIN TEMP: -13; 6HR MAX TEMP:  -8;

SIREN          PTCLDY    -3  -8  80 N3        30.46R
CUMBERLAND     MOCLDY    -2  -8  78 N10       30.39R WCI -19
RICE LAKE      MOCLDY     0  -6  76 NW6       30.42R WCI -12
CHETEK         MOCLDY    -2  -6  82 CALM      30.41R
LADYSMITH      PTCLDY    -4  -8  83 NW5       30.39R WCI -15
EAU CLAIRE     NOT AVBL
MENOMONIE      MOCLDY     3  -4  71 NW6       30.43R WCI  -8
NEW RICHMOND   MOCLDY     1  -5  74 N8        30.44R WCI -13
OSCEOLA        MOCLDY     1  -5  75 CALM      30.49R
$$

WIZ003>005-009-010-017-018-291300-
NORTH CENTRAL WISCONSIN

CITY           SKY/WX    TMP DP  RH WIND       PRES   REMARKS
MANITOWISH WTR CLOUDY     0  -4  85 CALM      30.30S
ARBOR VITAE    FLURRIES   1  -3  83 CALM      30.30R
WOODRUFF       FLURRIES   1  -3  83 CALM      30.30R
RHINELANDER    MOCLDY    -2  -6  83 NW6       30.30R WCI -14
6HR MIN TEMP: -13; 6HR MAX TEMP:  -2;

EAGLE RIVER    FLURRIES  -1  -5  80 W5        30.29R WCI -11
LAND O LAKES   LGT SNOW   5   1  85 W5        30.29R WCI  -4
PHILLIPS       PTCLDY   -16 -21  80 CALM      30.33S
TOMAHAWK       PTCLDY   -10 -14  80 CALM      30.32S
MEDFORD        PTCLDY   N/A N/A N/A CALM      30.33R
MERRILL        PTCLDY    -5  -9  84 W3        30.34R
$$

WIZ029-030-035-036-043>047-291300-
CENTRAL WISCONSIN

CITY           SKY/WX    TMP DP  RH WIND       PRES   REMARKS
WAUSAU         PTCLDY     2  -3  80 NW6       30.34R WCI  -9
6HR MIN TEMP:   1; 6HR MAX TEMP:   4;

MOSINEE        CLEAR      3   1  92 N6        30.35R WCI  -8
MARSHFIELD     MOCLDY     5   0  79 N6        30.35R WCI  -6
6HR MIN TEMP:   3; 6HR MAX TEMP:   9;

STEVENS POINT  MOCLDY     6   1  81 NW5       30.37R WCI  -3
WAUPACA        CLOUDY    14   7  74 NW5       30.37R WCI   6
WAUTOMA        NOT AVBL
WISC RAPIDS    MOCLDY    10   2  69 N5        30.39R WCI   2
6HR MIN TEMP:  10; 6HR MAX TEMP:  13;

CAMP DOUGLAS   NOT AVBL
$$

WIZ011>013-019>022-031-037>040-048>050-291300-
NORTHEAST WISCONSIN

CITY           SKY/WX    TMP DP  RH WIND       PRES   REMARKS
ANTIGO         MOCLDY    -3  -6  88 CALM      30.30R
SHAWANO        CLOUDY    11   6  79 W5        30.37R WCI   3
OCONTO         MOCLDY    12   6  77 NW5       30.37R WCI   4
STURGEON BAY   MOCLDY    16   7  67 NW13      30.35S WCI   2
6HR MIN TEMP:  16; 6HR MAX TEMP:  16;

GREEN BAY      CLOUDY    15   8  73 NW8       30.37R WCI   4
6HR MIN TEMP:  15; 6HR MAX TEMP:  16;

MANITOWOC      NOT AVBL
APPLETON       PTCLDY    14   7  73 N8        30.35R WCI   3
CLINTONVILLE   CLOUDY    12   5  73 NW6       30.36R WCI   3
OSHKOSH        CLOUDY    16   7  67 N7        30.36R WCI   6
6HR MIN TEMP:  16; 6HR MAX TEMP:  19;

$$

WIZ032>034-041-042-053>061-291300-
SOUTHWEST WISCONSIN

CITY           SKY/WX    TMP DP  RH WIND       PRES   REMARKS
LA CROSSE      CLOUDY    14   6  70 N8        30.41R WCI   3
6HR MIN TEMP:  14; 6HR MAX TEMP:  18;

SPARTA         MOCLDY    12   7  80 N6        30.41R WCI   2
VIROQUA        MOCLDY    15  11  84 N9        30.33R WCI   3
BOSCOBEL       CLOUDY    20  12  71 VRB5      30.37R WCI  13
6HR MIN TEMP:  20; 6HR MAX TEMP:  24;

PRAIRIE DU CHI MOCLDY    22  13  68 CALM      30.36R
PLATTEVILLE    PTCLDY    22  16  79 CALM      30.33R
$$

WIZ056-057-062-063-064-067-068-291300-
SOUTH CENTRAL WISCONSIN

CITY           SKY/WX    TMP DP  RH WIND       PRES   REMARKS
REEDSBURG      MOCLDY    15   9  76 N7        30.35R WCI   5
BARABOO/DELLS  MOCLDY    15  10  80 N5        30.35R WCI   8
LONE ROCK      NOT AVBL
MINERAL POINT  MOCLDY    21  14  73 NE8       30.30R WCI  12
MADISON        CLOUDY    18  13  80 N9        30.34R WCI   7
6HR MIN TEMP:  18; 6HR MAX TEMP:  24;

MIDDLETON      CLOUDY    21  15  76 N7        30.34R WCI  12
WATERTOWN      MOCLDY    18  13  82 N8        30.33R WCI   8
MONROE         CLOUDY    21  18  86 N9        30.30R WCI  11
JANESVILLE     CLOUDY    23  18  80 N8        30.32R WCI  14
$$

WIZ051-052-058>065-066-070>072-291300-
SOUTHEAST WISCONSIN

CITY           SKY/WX    TMP DP  RH WIND       PRES   REMARKS
MILWAUKEE      MOCLDY    22  13  68 N10       30.32R WCI  11
6HR MIN TEMP:  22; 6HR MAX TEMP:  28;

WAUKESHA       CLEAR     18  14  86 N6        30.33R WCI   9
MILWAUKEE/TIMM MOCLDY    19  12  73 N7        30.34R WCI  10
RACINE         CLOUDY    24  17  74 N10       30.33R WCI  14
6HR MIN TEMP:  23; 6HR MAX TEMP:  27;

BURLINGTON     MOCLDY    21  16  82 N5        30.31R WCI  15
KENOSHA        MOCLDY    23  17  78 N7        30.32R WCI  15
6HR MIN TEMP:  23; 6HR MAX TEMP:  27;

FOND DU LAC    CLOUDY    17   6  62 N9        30.36R WCI   6
6HR MIN TEMP:  16; 6HR MAX TEMP:  21;

SHEBOYGAN      CLOUDY    17   8  67 N8        30.35R WCI   7
6HR MIN TEMP:  17; 6HR MAX TEMP:  22;

WEST BEND      CLOUDY    18   9  68 N6        30.33R WCI   9
JUNEAU         MOCLDY    16  11  78 N6        30.35R WCI   8
$$

LSZ147-162-291300-
LAKE SUPERIOR

STATION/POSITION TIME  TEMP    WIND        PRES    WAVE
                       AIR SEA DIR/SP/G            HT/PER
                 (UTC) (F)     (DEG/KT/KT) (MB)    (FT/S)
DEVILS ISLAND    1100    6     320/ 12/ 16 1032.3R
PORT WING        1100    6     320/ 11/ 13 1031.5R
SAXON HARBOR     1140    6     240/  8/ 11 1030.5R
$$

LMZ867-665-643>646-291300-
LAKE MICHIGAN

STATION/POSITION TIME  TEMP    WIND        PRES    WAVE
                       AIR SEA DIR/SP/G            HT/PER
                 (UTC) (F)     (DEG/KT/KT) (MB)    (FT/S)
CHAMBERS ISLAND  1100   13     270/  6/ 12 1027.4R
NORTHPORT PIER   1112   16     310/ 11/ 17 1027.1R
SISTER BAY       1113          330/ 16/ 20   N/A
ALGOMA LAKESHORE 1100          350/ 10/ 12   N/A
KEWAUNEE LAKESHO 1100   16     340/  4/ 10 1026.3F
SHEBOYGAN LAKESH 1100   18 36  320/  9/ 11 1028.4R
PORT WASHINGTON  1100   20     360/  5/  9 1028.1
MILWAUKEE LAKESH 1100   23     330/  9/ 12   N/A
KENOSHA   LAKESH 1100   27     350/ 13/ 18 1025.4S
$$

TC  - TEMPERATURE IN CELSIUS
VSB - VISIBILITY IN STATUTE MILES
WCI - WIND CHILL INDEX
HX  - HEAT INDEX



USA.gov is the U.S. government's official web portal to all federal, state and local government web resources and services.